Terminal Aerodrome Forecast
Issued by NWS Mobile, AL

Home | Current Version | Previous Version | Text Only | Print | Product List | Glossary On
Versions: 1 2 3 4 5 6 7 8 9 10 11 12 13 14 15 16 17 18 19 20 21 22 23 24 25 26
000
FTUS44 KMOB 020500
TAFPNS
TAF
KPNS 020531Z 0206/0306 10003KT P6SM SCT250
     FM021000 12003KT 5SM BR SCT010
     FM021400 14005KT P6SM VCSH SCT030 BKN050 PROB30 0215/0219 5SM
      -TSRA BKN030CB=

USA.gov is the U.S. government's official web portal to all federal, state and local government web resources and services.